This is the latest recevied weather packets stored in our database for station/object K9VSK-9. If no packets are shown the sender has not sent any weather packets the latest 10 day(s).
| Time | Temp. | Humidity | Pressure | Rain* | Wind** | Luminosity | Snow |
|---|---|---|---|---|---|---|---|
| 1777826785 | 15.56° C | 53% | 1014.2 hPa | 0 mm | - | - | - |
| 1777826485 | 16.11° C | 55% | 1014 hPa | 0 mm | - | - | - |
| 1777826184 | 15.56° C | 56% | 1014.1 hPa | 0 mm | - | - | - |
| 1777825884 | 15° C | 58% | 1014.1 hPa | 0 mm | - | - | - |
| 1777825584 | 14.44° C | 59% | 1014.4 hPa | 0 mm | - | - | - |
| 1777825284 | 13.89° C | 58% | 1014.5 hPa | 0 mm | - | - | - |
| 1777824983 | 13.89° C | 60% | 1014.7 hPa | 0 mm | - | - | - |
| 1777824683 | 13.89° C | 59% | 1014.7 hPa | 0 mm | - | - | - |
| 1777824383 | 13.89° C | 58% | 1014.8 hPa | 0 mm | - | - | - |
| 1777824082 | 13.89° C | 58% | 1014.9 hPa | 0 mm | - | - | - |
| 1777823783 | 14.44° C | 58% | 1015.1 hPa | 0 mm | - | - | - |
| 1777823482 | 14.44° C | 56% | 1015.1 hPa | 0 mm | - | - | - |
| 1777823182 | 15° C | 55% | 1015.1 hPa | 0 mm | - | - | - |
| 1777822881 | 15° C | 56% | 1015.3 hPa | 0 mm | - | - | - |
| 1777822581 | 14.44° C | 58% | 1015.4 hPa | 0 mm | - | - | - |
| 1777822281 | 13.89° C | 58% | 1015.5 hPa | 0 mm | - | - | - |
| 1777821981 | 13.89° C | 59% | 1015.6 hPa | 0 mm | - | - | - |
| 1777821680 | 13.89° C | 59% | 1015.7 hPa | 0 mm | - | - | - |
| 1777821380 | 13.33° C | 60% | 1015.7 hPa | 0 mm | - | - | - |
| 1777821080 | 12.78° C | 62% | 1015.8 hPa | 0 mm | - | - | - |
| 1777820780 | 12.22° C | 63% | 1015.8 hPa | 0 mm | - | - | - |
| 1777820480 | 12.22° C | 64% | 1015.9 hPa | 0 mm | - | - | - |
| 1777820179 | 12.22° C | 64% | 1016.1 hPa | 0 mm | - | - | - |
| 1777819879 | 12.22° C | 64% | 1016.2 hPa | 0 mm | - | - | - |
| 1777819578 | 12.22° C | 63% | 1016.2 hPa | 0 mm | - | - | - |
* Rain latest hour (hover to see other rain measurements)
** Current wind speed in m/s (hover to see current wind gust speed)